Regional Weather Roundup
Issued by NWS San Diego, CA

Home | Current Version | Previous Version | Text Only | Print | Product List | Glossary On
Versions: 1 2 3 4 5 6 7 8 9 10 11 12 13 14 15 16 17 18 19 20 21 22 23 24 25 26 27
000
ASUS46 KSGX 040411
RWRSGX

SAN DIEGO HOURLY WEATHER ROUNDUP
NATIONAL WEATHER SERVICE SAN DIEGO CA
900 PM PDT TUE MAY 03 2016

NOTE: "FAIR" INDICATES FEW OR NO CLOUDS BELOW 12,000 FEET WITH NO
SIGNIFICANT WEATHER AND/OR OBSTRUCTIONS TO VISIBILITY.

CAZ042-043-060-061-PZZ750-775-040500-

GREATER SAN DIEGO AREA

CITY           SKY/WX    TMP DP  RH WIND       PRES   REMARKS
LINDBERGH FLD  MOCLDY    63  54  72 NW7       29.97R
POINT LOMA       N/A     60  60 100 NW10        N/A
NATIONAL CITY    N/A     63  58  83 CALM      29.96R
CHULA VISTA      N/A     62  58  87 W3        29.88R
IMPERIAL BEACH CLOUDY    63  56  78 W7        29.96R
BROWN FIELD    CLOUDY    59  56  89 W7        29.96R
MIRAMAR MCAS   MOCLDY    62  54  74 NW7       29.96R
MONTGOMERY FLD CLOUDY    61  54  77 W7        29.96R

$$

NORTH SAN DIEGO COUNTY

CITY           SKY/WX    TMP DP  RH WIND       PRES   REMARKS
CAMP PENDLETON PTCLDY    61  57  87 VRB3      29.95R
OCEANSIDE AP   CLOUDY    61  55  81 SW7       29.95R
OCEANSIDE HBR    N/A     62  59  91 SW9       29.98R
VISTA            N/A     59  55  84 CALM      29.94R
CARLSBAD       CLOUDY    61  55  81 SW3       29.95R
DEL MAR          N/A     61  56  84 CALM      29.98R
LA JOLLA SCRIP   N/A     60  56  87 CALM      29.95R
FALLBROOK        N/A     59  57  94 CALM      29.93R
SAN MARCOS       N/A     59  50  74 CALM      29.93R
POWAY            N/A     60  54  82 CALM      29.96R

$$

EAST SAN DIEGO COUNTY

CITY           SKY/WX    TMP DP  RH WIND       PRES   REMARKS
RAMONA         CLEAR     56  52  86 W8        29.95R
SANTEE LAKES     N/A     60  55  82 W8        29.94R
LA MESA          N/A     60  56  85 CALM      29.88R
JAMUL            N/A     58  54  85 CALM      29.95R
DESCANSO N       N/A     56  44  63 E5        29.81R
MT. LAGUNA OBS   N/A     57  25  29 E6        29.68
CAMPO            N/A     57  41  55 NE5       29.95R

$$

ORANGE COUNTY AND THE LOS ANGELES BASIN

CITY           SKY/WX    TMP DP  RH WIND       PRES   REMARKS
JOHN WAYNE AP  PTCLDY    59  55  88 SW5       29.95R
LAKE FOREST FR   N/A     58  52  80 CALM      29.84R
HUNTINGTON BCH   N/A     59  56  89 W6        29.96R
LOS ALAMITOS   FAIR      61  56  82 NW2       29.94R
FULLERTON      CLEAR     63  56  78 CALM      29.94R
LONG BEACH     PTCLDY    60  55  83 NW8       29.94R
L.A. AP        CLOUDY    58  53  84 W9        29.95R
L.A. DOWNTOWN  CLOUDY    60  54  80 W5        29.94R

$$

THE INLAND EMPIRE

CITY           SKY/WX    TMP DP  RH WIND       PRES   REMARKS
CORONA         CLEAR     62  55  77 W8        29.94R
CHINO          CLEAR     64  54  69 W12       29.95R
ONTARIO        PTCLDY    67  53  61 W8        29.93R
SAN BERNARDINO PTCLDY    72  54  53 SW6       29.93R
RIVERSIDE AP   CLEAR     70  52  52 W6        29.93R
MORENO VALLEY    N/A     68  55  63 CALM      28.05R
MARCH ARB      CLEAR     69  51  52 NW5       29.94R
HORSETHIEF CYN   N/A     68  45  43 W2        29.94R
PERRIS           N/A     69  53  55 SE3       29.90R
HEMET EAST       N/A     85  34  15 CALM      29.81S
FRENCH VALLEY  FAIR      64  54  68 CALM      29.95R
TEMECULA         N/A     65  56  72 S2        29.89R

$$

SAN BERNARDINO AND RIVERSIDE COUNTY MOUNTAINS

CITY           SKY/WX    TMP DP  RH WIND       PRES   REMARKS
BIG BEAR AP    PTCLDY    46  37  71 CALM      30.17R
PINE COVE        N/A     53  38  56 N1        29.93R

$$

SOUTHERN DESERT INCLUDING THE COACHELLA VALLEY

CITY           SKY/WX    TMP DP  RH WIND       PRES   REMARKS
PALM SPRINGS   PTCLDY    87  42  20 NW15      29.84R
THOUSAND PALMS   N/A     85  42  22 N5        29.81R
PALM DESERT      N/A     86  42  21 NE3       31.09S
THERMAL        PTCLDY    80  33  18 E7        29.78R
BLYTHE         PTCLDY    86  34  15 SW3       29.82S
IMPERIAL AP    CLEAR     83  39  21 W3        29.80R
EL CENTRO NAS  PTCLDY    82  38  20 CALM      29.82F
YUMA AZ        PTCLDY    83  40  21 W3        29.81
MEXICALI       CLEAR     81  37  21 S3        29.81R

$$

UPPER DESERT

CITY           SKY/WX    TMP DP  RH WIND       PRES   REMARKS
VICTORVILLE AP CLEAR     70  36  28 S8        29.97R
HESPERIA         N/A     69  41  36 W6        30.00R
PALMDALE       PTCLDY    71  35  26 SW13      29.95R
LANCASTER      PTCLDY    71  36  27 SW8       29.95R
EDWARDS AFB    MOCLDY    73  37  26 SW13      29.92R
DAGGETT        PTCLDY    78  31  17 E3        29.90R
29 PALMS N     MOCLDY    75  22  13 S8        29.98R
NEEDLES        MOCLDY    82  40  22 W6        29.86R

$$

REGIONAL REPORTS

CITY           SKY/WX    TMP DP  RH WIND       PRES   REMARKS
SANTA BARBARA  CLEAR     56  53  90 CALM      29.91R
SANDBERG       CLEAR     63  33  32 S10       30.06R
LAS VEGAS NV   MOCLDY    80  30  16 NW7       29.91R
PHOENIX AZ     PTCLDY    88  29  12 NW7       29.84R
TIJUANA        PTCLDY    59  52  77 W12       29.98R
ENSENADA NW      N/A     61  32  34 S8        29.92S

$$

OFFSHORE ISLANDS

CITY           SKY/WX    TMP DP  RH WIND       PRES   REMARKS
CATALINA ARPT  PTCLDY    60  39  45 W7        29.96R
SAN NICOLAS IS PTCLDY   N/A N/A N/A W14       29.94R

$$

MARINE AND OFFSHORE BUOY REPORTS

STATION/POSITION SKY/WX   TEMP    WIND        PRES    SWELL
                          AIR SEA DIR/SP/G            HT/PER/DIR
                          (F)     (DEG/KT/KT) (MB)    (FT/S/D)
TANNER BANKS               58 60  300/ 12/ 14 1014.2R   7/310/13
S CLEMENTE BASIN           58 61  290/ 12/ 14 1014.0R   5/260/13
SAN NICOLAS IS.               59                N/A     5/280/13
SO. S. ROSA ISLA           55 56  300/ 14/ 16 1013.4R   5/280/14
W. S. BARBARA CH           54 56  310/ 19/ 23 1012.0R   5/300/12
M. S. BARBARA CH           55 56  260/ 14/ 16 1013.0F
S. MONICA BASIN            57 60  280/  2/  4 1013.6R   3/190/13
OCEANSIDE OFFSHR              65                N/A     3/220/13
TORREY PINES OTR              65                N/A     3/240/13
LA JOLLA 1                 61 67  290/  6/  8 1014.0R
SAN DIEGO BAY                 69              1014.2R
POINT LOMA SOUTH              63                N/A     3/250/14

$$





USA.gov is the U.S. government's official web portal to all federal, state and local government web resources and services.